GW0807 Weather Reports


time (UTC)temp
C
wind
direction
speed
KPH
gust
KPH
rain 1hr
cm
rain 24hr
cm
rain mn
cm
humidity
%
barometer
mb
20260505011505 17 148 11.3 17.7 0.00 0.00 0.00 75 1011.0
20260505011004 17 130 12.9 17.7 0.00 0.00 0.00 74 1011.1
20260505010504 17 137 9.7 17.7 0.00 0.00 0.00 74 1011.1
20260505010005 17 161 11.3 17.7 0.00 0.00 0.00 73 1010.9
20260505005505 17 164 9.7 17.7 0.00 0.00 0.00 72 1010.9
20260505004504 17 135 12.9 19.3 0.00 0.00 0.00 69 1010.8
20260505004004 17 156 11.3 16.1 0.00 0.00 0.00 69 1010.8
20260505003005 17 137 9.7 22.5 0.00 0.00 0.00 66 1010.7
20260505002004 17 141 11.3 17.7 0.00 0.00 0.00 66 1010.7
20260505001505 18 121 11.3 16.1 0.00 0.00 0.00 66 1010.6
20260505001004 18 133 9.7 16.1 0.00 0.00 0.00 65 1010.6
20260505000504 18 142 9.7 16.1 0.00 0.00 0.00 62 1010.5
20260505000005 18 120 8.0 17.7 0.00 0.00 0.00 59 1010.5
20260504235004 19 132 9.7 17.7 0.00 0.00 0.00 55 1010.4
20260504234500 20 150 11.3 17.7 0.00 0.00 0.00 54 1010.5
20260504234002 20 155 11.3 19.3 0.00 0.00 0.00 53 1010.4
20260504233500 20 154 14.5 29.0 0.00 0.00 0.00 52 1010.5
20260504233000 20 156 14.5 29.0 0.00 0.00 0.00 51 1010.5
20260504232504 20 162 16.1 22.5 0.00 0.00 0.00 51 1010.5
20260504232004 20 166 14.5 27.4 0.00 0.00 0.00 51 1010.3
20260504231504 20 164 19.3 27.4 0.00 0.00 0.00 51 1010.5
20260504231000 20 161 14.5 24.1 0.00 0.00 0.00 50 1010.5
20260504230005 21 138 14.5 19.3 0.00 0.00 0.00 50 1010.4
20260504225502 21 161 16.1 25.7 0.00 0.00 0.00 50 1010.5
20260504225004 21 171 16.1 25.7 0.00 0.00 0.00 50 1010.4
20260504223959 21 163 17.7 25.7 0.00 0.00 0.00 49 1010.5
20260504223500 21 169 20.9 25.7 0.00 0.00 0.00 49 1010.5
20260504223004 21 169 19.3 27.4 0.00 0.00 0.00 48 1010.5
20260504222502 21 161 19.3 25.7 0.00 0.00 0.00 48 1010.4
20260504222000 21 174 16.1 25.7 0.00 0.00 0.00 49 1010.4
20260504221504 21 170 14.5 24.1 0.00 0.00 0.00 48 1010.4
20260504220959 21 165 16.1 25.7 0.00 0.00 0.00 46 1010.4
20260504220504 21 175 17.7 30.6 0.00 0.00 0.00 45 1010.5
20260504220004 21 161 16.1 30.6 0.00 0.00 0.00 47 1010.6
20260504215004 21 174 16.1 30.6 0.00 0.00 0.00 46 1010.6
20260504214504 21 161 16.1 30.6 0.00 0.00 0.00 47 1010.5
20260504213504 22 157 22.5 35.4 0.00 0.00 0.00 40 1010.7
20260504213004 22 161 24.1 35.4 0.00 0.00 0.00 40 1010.7
20260504212505 22 155 19.3 25.7 0.00 0.00 0.00 42 1010.7
20260504212005 22 159 20.9 27.4 0.00 0.00 0.00 40 1010.7
20260504211504 22 170 20.9 27.4 0.00 0.00 0.00 42 1010.8
20260504211005 22 164 17.7 27.4 0.00 0.00 0.00 42 1010.9
20260504210504 21 141 14.5 27.4 0.00 0.00 0.00 42 1010.7
20260504210004 22 148 14.5 27.4 0.00 0.00 0.00 44 1010.7
20260504205504 22 150 17.7 27.4 0.00 0.00 0.00 43 1010.7
20260504205000 22 153 17.7 25.7 0.00 0.00 0.00 43 1010.8
20260504204505 22 126 16.1 25.7 0.00 0.00 0.00 44 1010.8
20260504203500 22 174 20.9 25.7 0.00 0.00 0.00 42 1010.8
20260504203004 22 157 20.9 29.0 0.00 0.00 0.00 43 1010.8
20260504202504 22 142 19.3 25.7 0.00 0.00 0.00 42 1010.9
20260504202004 22 177 20.9 30.6 0.00 0.00 0.00 41 1011.0
20260504201504 22 167 27.4 30.6 0.00 0.00 0.00 39 1010.9
20260504201000 22 176 24.1 32.2 0.00 0.00 0.00 39 1011.0
20260504200502 22 169 24.1 30.6 0.00 0.00 0.00 37 1011.1
20260504195504 23 154 20.9 25.7 0.00 0.00 0.00 39 1011.2
20260504195004 23 170 17.7 25.7 0.00 0.00 0.00 38 1011.3
20260504194505 23 142 22.5 29.0 0.00 0.00 0.00 39 1011.3
20260504194004 23 167 19.3 29.0 0.00 0.00 0.00 41 1011.3
20260504193504 22 174 20.9 27.4 0.00 0.00 0.00 37 1011.5
20260504193004 22 176 22.5 30.6 0.00 0.00 0.00 38 1011.7
20260504192505 23 162 20.9 25.7 0.00 0.00 0.00 38 1011.7
20260504192005 22 169 20.9 22.5 0.00 0.00 0.00 40 1011.6
20260504191504 22 181 14.5 24.1 0.00 0.00 0.00 45 1011.6
20260504191005 22 180 16.1 25.7 0.00 0.00 0.00 44 1011.7
20260504190504 22 184 20.9 27.4 0.00 0.00 0.00 43 1011.7
20260504190005 22 183 16.1 22.5 0.00 0.00 0.00 41 1011.7
20260504185504 22 185 17.7 22.5 0.00 0.00 0.00 42 1011.9
20260504185004 22 194 12.9 19.3 0.00 0.00 0.00 44 1012.0
20260504184505 22 201 14.5 16.1 0.00 0.00 0.00 44 1012.0
20260504184004 22 187 9.7 12.9 0.00 0.00 0.00 40 1012.0
20260504183504 22 192 9.7 12.9 0.00 0.00 0.00 41 1012.1
20260504183004 22 188 9.7 12.9 0.00 0.00 0.00 37 1012.2
20260504182505 22 184 9.7 11.3 0.00 0.00 0.00 42 1012.2
20260504182005 22 190 9.7 14.5 0.00 0.00 0.00 42 1012.2
20260504181505 22 188 11.3 17.7 0.00 0.00 0.00 43 1012.4
20260504181004 22 189 12.9 17.7 0.00 0.00 0.00 44 1012.5
20260504180504 22 188 11.3 17.7 0.00 0.00 0.00 46 1012.6
20260504180004 22 193 12.9 17.7 0.00 0.00 0.00 44 1012.6
20260504175503 22 195 14.5 19.3 0.00 0.00 0.00 47 1012.7
20260504175004 21 190 16.1 16.1 0.00 0.00 0.00 44 1012.6
20260504174504 21 192 14.5 20.9 0.00 0.00 0.00 44 1012.7
20260504174000 21 191 16.1 20.9 0.00 0.00 0.00 41 1012.7
20260504173500 21 188 17.7 20.9 0.00 0.00 0.00 40 1012.8
20260504173003 21 181 16.1 20.9 0.00 0.00 0.00 41 1012.8
20260504172504 21 194 14.5 19.3 0.00 0.00 0.00 44 1013.0
20260504172000 20 192 9.7 16.1 0.00 0.00 0.00 42 1013.0
20260504171503 20 200 12.9 16.1 0.00 0.00 0.00 41 1013.1
20260504171004 20 176 8.0 9.7 0.00 0.00 0.00 41 1013.0
20260504170500 20 186 6.4 8.0 0.00 0.00 0.00 41 1013.1
20260504151004 17 185 8.0 11.3 0.00 0.00 0.00 49 1014.1
20260504150504 17 184 6.4 11.3 0.00 0.00 0.00 54 1014.2
20260504141000 17 215 14.5 22.5 0.00 0.00 0.00 54 1014.1
20260504140504 17 219 14.5 19.3 0.00 0.00 0.00 52 1014.1
20260504130501 15 196 16.1 20.9 0.00 0.00 0.00 61 1014.7
20260504110500 12 181 19.3 22.5 0.00 0.00 0.00 68 1015.7
20260504100459 12 195 17.7 24.1 0.00 0.00 0.00 72 1015.6
20260504081500 12 184 22.5 27.4 0.00 0.00 0.00 70 1015.5
20260504081000 12 164 20.9 30.6 0.00 0.00 0.00 70 1015.6
20260504080504 12 171 27.4 30.6 0.00 0.00 0.00 68 1015.7
20260504050500 12 158 12.9 22.5 0.00 0.00 0.00 73 1015.8
20260504050004 12 154 17.7 22.5 0.00 0.00 0.00 73 1016.0
20260504045505 12 176 22.5 29.0 0.00 0.00 0.00 73 1016.0
20260504045004 12 178 24.1 29.0 0.00 0.00 0.00 72 1016.1
20260504044505 11 176 24.1 25.7 0.00 0.00 0.00 71 1016.0
20260504044005 11 173 20.9 27.4 0.00 0.00 0.00 70 1016.0
20260504043005 12 162 19.3 24.1 0.00 0.00 0.00 68 1016.1
20260504042504 11 183 22.5 24.1 0.00 0.00 0.00 67 1016.0
20260504042005 11 186 22.5 24.1 0.00 0.00 0.00 67 1016.0
20260504041504 12 178 20.9 27.4 0.00 0.00 0.00 67 1015.9
20260504041005 12 179 19.3 20.9 0.00 0.00 0.00 67 1016.0
20260504040504 12 171 17.7 22.5 0.00 0.00 0.00 68 1015.7
20260504040004 12 184 19.3 22.5 0.00 0.00 0.00 69 1015.6
20260504035505 12 176 19.3 22.5 0.00 0.00 0.00 69 1015.6
20260504035004 12 180 19.3 22.5 0.00 0.00 0.00 70 1015.7
20260504034504 11 184 17.7 20.9 0.00 0.00 0.00 71 1015.6
20260504033504 11 182 16.1 17.7 0.00 0.00 0.00 73 1015.4
20260504033005 11 184 16.1 19.3 0.00 0.00 0.00 73 1015.5
20260504032504 11 181 11.3 17.7 0.00 0.00 0.00 72 1015.4
20260504032004 11 171 9.7 11.3 0.00 0.00 0.00 72 1015.4
20260504031505 11 157 9.7 11.3 0.00 0.00 0.00 72 1015.4
20260504031005 11 167 6.4 9.7 0.00 0.00 0.00 72 1015.4
20260504030504 11 151 6.4 11.3 0.00 0.00 0.00 71 1015.4
20260504030005 11 154 8.0 11.3 0.00 0.00 0.00 71 1015.4
20260504025504 11 158 3.2 8.0 0.00 0.00 0.00 70 1015.4
20260504025005 11 153 4.8 9.7 0.00 0.00 0.00 69 1015.3
20260504024504 11 164 3.2 11.3 0.00 0.00 0.00 68 1015.3
20260504024005 11 140 4.8 11.3 0.00 0.00 0.00 67 1015.4
20260504023504 11 153 8.0 11.3 0.00 0.00 0.00 67 1015.4
20260504023004 11 156 6.4 11.3 0.00 0.00 0.00 67 1015.4
20260504022504 11 142 4.8 8.0 0.00 0.00 0.00 66 1015.4
20260504022004 11 136 3.2 6.4 0.00 0.00 0.00 65 1015.4
20260504021505 11 125 1.6 8.0 0.00 0.00 0.00 66 1015.3
20260504021004 11 140 3.2 11.3 0.00 0.00 0.00 66 1015.3
20260504020005 11 146 1.6 6.4 0.00 0.00 0.00 66 1015.2
20260504015504 11 149 1.6 6.4 0.00 0.00 0.00 65 1015.3
20260504015005 11 159 3.2 8.0 0.00 0.00 0.00 63 1015.3
20260504014504 12 154 4.8 9.7 0.00 0.00 0.00 63 1015.4
20260504014004 12 163 3.2 9.7 0.00 0.00 0.00 65 1015.2
20260504013504 12 156 6.4 12.9 0.00 0.00 0.00 62 1015.2
20260504013004 12 146 6.4 12.9 0.00 0.00 0.00 63 1015.2
20260504012504 12 177 11.3 14.5 0.00 0.00 0.00 61 1015.0